Showing default

CATSAT, 60246

Orbit data source: Space-Track

CATSAT, 60246 is a payload satellite owned by U. Arizona (US) in SSO that was launched on Thu, 04 Jul 2024 UTC via an FIREFLY ALPHA launch vehicle from the Air Force Western Test Range (AFWTR). Payload-class satellites include a variety of spacecraft equipped with specific instruments for various scientific and technological missions. These include communications satellites like Starlink; space stations such as the ISS; scientific satellites like the Hubble; Earth observation satellites from companies like Planet Labs, Umbra, and HawkEye 360; GPS; miniature CubeSats for education and research; and military/defense satellites.

Loading next visibility...
Identifier
60246, 2024-125J
Orbit
SSO
Country
Flag of USUS
Related business
Manufacturer
U. Arizona
Mission
Operational Amateur Technology
Bus & Motor
CUBESAT 6U, Unknown motor
Mass
12 kg wet, ~12 kg dry
Launch date (UTC)
2024-07-04 (1 year ago)
Launch vehicle
FIREFLY ALPHA
Launch site
Air Force Western Test Range (AFWTR)
Object type
Payload
Rocket body
Debris
Shape & HBR
Box + Inf Sphere + 1 Pan, 0.4 m
Radar Cross Section
0.050 m², Medium (>0.1 m² and < 1m²)

Expand to show TLE details & history
Last TLE update: 7 hours ago

TLE from 7 hours ago
0 CATSAT
1 60246U 24125J   25298.86274537  .00034548  00000-0  95684-3 0  9999
2 60246  97.2403 146.8931 0036223 322.4848  37.3869 15.36221222 71161
Epoch: 2025-10-25T20:42Z
TLE epoch observation values (Epoch: 2025-10-25T20:42:21.199Z)
Latitude
-0.00005°
Longitude
161.81758°
Altitude
440.768 km
Speed
7.658 km/s
True Right ascension
09h 47m 34s
True Declination
0° 00' 00"
Sunlit
Object was in daylight at epoch
Visualization orbit readout
Latitude
Unknown
Longitude
Unknown
Altitude
Unknown
Speed
Unknown
Apparent Right ascension
Unknown
Apparent Declination
Unknown
Sunlit
N/A
Visualization observer readout
Local Sidereal Time
22:31:32
Azimuth
Unknown
Elevation
Unknown
Doppler factor
Unknown
Orbital elements
Apogee altitude
478.982 km
Perigee altitude
429.484 km
Semi-major axis
6,832.37 km
Eccentricity
0.00362
Inclination
97.2403°
RAAN
146.8931°
Arg. of periapsis
322.4848°
True anomaly
37.63985°
Mean anomaly
37.3869°
Eccentric anomaly
37.51328°
Mean motion
3.84314 °/min
Orbital period
93.67 mins
BSTAR
0.00095684
Loading maneuver chart data...
Computing Atmospheric mass density...
Loading historical data...
Loading historical data...
Loading historical data...
Loading historical data...
Loading historical data...
Loading historical data...
Loading historical data...

Documentation

Showing up to 5 results
|